| time (UTC) | temp F | wind direction | speed knots | gust knots | rain 1hr in | rain 24hr in | rain mn in | humidity % | barometer mb |
| 20260508125435 | 82 | 206 | 0.0 | 0.0 | 0.00 | 0.00 | 0.00 | 84 | 1009.4 |
| 20260508124933 | 82 | 206 | 0.0 | 0.0 | 0.00 | 0.00 | 0.00 | 84 | 1009.4 |
| 20260508124431 | 82 | 206 | 0.0 | 0.0 | 0.00 | 0.00 | 0.00 | 84 | 1009.5 |
| 20260508123928 | 82 | 197 | 0.0 | 0.0 | 0.00 | 0.00 | 0.00 | 84 | 1009.3 |
| 20260508123427 | 82 | 197 | 0.0 | 0.0 | 0.00 | 0.00 | 0.00 | 83 | 1009.2 |
| 20260508122923 | 82 | 198 | 0.0 | 0.0 | 0.00 | 0.00 | 0.00 | 83 | 1009.2 |
| 20260508122420 | 82 | 202 | 0.0 | 0.0 | 0.00 | 0.00 | 0.00 | 82 | 1009.2 |
| 20260508121917 | 82 | 203 | 0.0 | 0.0 | 0.00 | 0.00 | 0.00 | 82 | 1009.2 |
| 20260508121415 | 82 | 202 | 0.0 | 0.0 | 0.00 | 0.00 | 0.00 | 82 | 1009.3 |
| 20260508120912 | 82 | 214 | 0.0 | 0.0 | 0.00 | 0.00 | 0.00 | 82 | 1009.3 |
| 20260508120410 | 82 | 222 | 0.0 | 0.0 | 0.00 | 0.00 | 0.00 | 82 | 1009.2 |
| 20260508115907 | 82 | 191 | 0.0 | 0.0 | 0.00 | 0.00 | 0.00 | 82 | 1009.0 |
| 20260508115405 | 83 | 189 | 0.0 | 0.0 | 0.00 | 0.00 | 0.00 | 81 | 1008.9 |
| 20260508114901 | 83 | 167 | 0.0 | 0.0 | 0.00 | 0.00 | 0.00 | 82 | 1008.6 |
| 20260508114358 | 83 | 187 | 0.0 | 0.0 | 0.00 | 0.00 | 0.00 | 83 | 1008.7 |
| 20260508113855 | 83 | 183 | 0.0 | 0.0 | 0.00 | 0.00 | 0.00 | 83 | 1008.4 |
| 20260508113353 | 83 | 182 | 0.0 | 0.0 | 0.00 | 0.00 | 0.00 | 84 | 1008.4 |
| 20260508112850 | 83 | 183 | 0.0 | 0.0 | 0.00 | 0.00 | 0.00 | 83 | 1008.5 |
| 20260508112347 | 83 | 181 | 0.0 | 0.0 | 0.00 | 0.00 | 0.00 | 84 | 1008.4 |
| 20260508111843 | 83 | 181 | 0.0 | 0.0 | 0.00 | 0.00 | 0.00 | 84 | 1008.7 |
| 20260508111340 | 83 | 195 | 0.0 | 0.0 | 0.00 | 0.00 | 0.00 | 83 | 1008.5 |
| 20260508110837 | 83 | 186 | 0.0 | 0.0 | 0.00 | 0.00 | 0.00 | 83 | 1008.4 |
| 20260508110335 | 83 | 186 | 0.0 | 0.0 | 0.00 | 0.00 | 0.00 | 83 | 1008.2 |
| 20260508105835 | 83 | 186 | 0.0 | 0.0 | 0.00 | 0.00 | 0.00 | 84 | 1008.4 |
| 20260508105331 | 83 | 186 | 0.0 | 0.0 | 0.00 | 0.00 | 0.00 | 83 | 1008.2 |
| 20260508104828 | 84 | 148 | 0.0 | 0.0 | 0.00 | 0.00 | 0.00 | 82 | 1008.4 |
| 20260508104325 | 84 | 186 | 0.0 | 0.0 | 0.00 | 0.00 | 0.00 | 82 | 1008.2 |
| 20260508103822 | 84 | 186 | 0.0 | 0.0 | 0.00 | 0.00 | 0.00 | 82 | 1008.2 |
| 20260508103319 | 84 | 186 | 0.0 | 0.0 | 0.00 | 0.00 | 0.00 | 82 | 1008.2 |
| 20260508102817 | 84 | 185 | 0.0 | 0.0 | 0.00 | 0.00 | 0.00 | 82 | 1008.2 |
| 20260508102315 | 84 | 201 | 0.0 | 0.9 | 0.00 | 0.00 | 0.00 | 81 | 1008.1 |
| 20260508101812 | 85 | 179 | 0.0 | 0.0 | 0.00 | 0.00 | 0.00 | 80 | 1008.0 |
| 20260508101309 | 85 | 169 | 0.0 | 0.0 | 0.00 | 0.00 | 0.00 | 80 | 1008.1 |
| 20260508100807 | 85 | 164 | 0.0 | 0.0 | 0.00 | 0.00 | 0.00 | 79 | 1008.0 |
| 20260508100305 | 85 | 164 | 0.0 | 0.0 | 0.00 | 0.00 | 0.00 | 78 | 1007.9 |
| 20260508095800 | 86 | 185 | 0.0 | 0.9 | 0.00 | 0.00 | 0.00 | 77 | 1007.8 |
| 20260508095258 | 87 | 188 | 0.0 | 0.0 | 0.00 | 0.00 | 0.00 | 75 | 1007.6 |
| 20260508094755 | 87 | 183 | 0.0 | 0.0 | 0.00 | 0.00 | 0.00 | 75 | 1007.8 |
| 20260508094252 | 87 | 124 | 0.0 | 0.9 | 0.00 | 0.00 | 0.00 | 75 | 1007.7 |
| 20260508093749 | 87 | 173 | 0.0 | 0.0 | 0.00 | 0.00 | 0.00 | 73 | 1007.4 |
| 20260508093247 | 88 | 96 | 0.0 | 0.9 | 0.00 | 0.00 | 0.00 | 72 | 1007.1 |
| 20260508092743 | 88 | 57 | 0.0 | 0.0 | 0.00 | 0.00 | 0.00 | 71 | 1007.4 |
| 20260508092242 | 88 | 285 | 0.0 | 0.0 | 0.00 | 0.00 | 0.00 | 71 | 1007.3 |
| 20260508091739 | 88 | 254 | 0.0 | 0.9 | 0.00 | 0.00 | 0.00 | 70 | 1007.3 |
| 20260508091236 | 88 | 9 | 0.0 | 2.6 | 0.00 | 0.00 | 0.00 | 70 | 1007.1 |
| 20260508090734 | 88 | 56 | 0.0 | 2.6 | 0.00 | 0.00 | 0.00 | 69 | 1007.2 |
| 20260508090231 | 89 | 156 | 2.6 | 5.2 | 0.00 | 0.00 | 0.00 | 69 | 1007.2 |
| 20260508085727 | 90 | 214 | 0.0 | 0.9 | 0.00 | 0.00 | 0.00 | 67 | 1007.3 |
| 20260508085224 | 90 | 115 | 0.9 | 1.7 | 0.00 | 0.00 | 0.00 | 67 | 1007.1 |
| 20260508084720 | 90 | 37 | 0.0 | 1.7 | 0.00 | 0.00 | 0.00 | 67 | 1006.9 |
| 20260508084218 | 90 | 15 | 0.9 | 2.6 | 0.00 | 0.00 | 0.00 | 68 | 1006.9 |
| 20260508083715 | 91 | 87 | 0.0 | 0.9 | 0.00 | 0.00 | 0.00 | 66 | 1007.0 |
| 20260508083213 | 91 | 283 | 0.9 | 1.7 | 0.00 | 0.00 | 0.00 | 66 | 1006.9 |
| 20260508082707 | 92 | 159 | 0.0 | 0.0 | 0.00 | 0.00 | 0.00 | 64 | 1007.0 |
| 20260508082205 | 92 | 305 | 2.6 | 3.5 | 0.00 | 0.00 | 0.00 | 64 | 1007.1 |
| 20260508081702 | 91 | 162 | 0.0 | 1.7 | 0.00 | 0.00 | 0.00 | 64 | 1006.8 |
| 20260508081158 | 91 | 203 | 0.0 | 0.0 | 0.00 | 0.00 | 0.00 | 65 | 1006.9 |
| 20260508080656 | 90 | 143 | 0.0 | 1.7 | 0.00 | 0.00 | 0.00 | 66 | 1006.7 |
| 20260508080154 | 90 | 185 | 0.0 | 1.7 | 0.00 | 0.00 | 0.00 | 66 | 1006.8 |
| 20260508075650 | 92 | 296 | 0.0 | 0.9 | 0.00 | 0.00 | 0.00 | 65 | 1006.9 |
| 20260508075148 | 93 | 169 | 0.9 | 1.7 | 0.00 | 0.00 | 0.00 | 62 | 1006.8 |
| 20260508074645 | 92 | 268 | 0.0 | 0.0 | 0.00 | 0.00 | 0.00 | 64 | 1007.0 |
| 20260508074142 | 92 | 49 | 0.0 | 0.9 | 0.00 | 0.00 | 0.00 | 64 | 1007.0 |
| 20260508073639 | 91 | 149 | 0.9 | 0.9 | 0.00 | 0.00 | 0.00 | 64 | 1007.1 |
| 20260508073137 | 91 | 312 | 0.0 | 0.0 | 0.00 | 0.00 | 0.00 | 65 | 1006.9 |
| 20260508072632 | 91 | 264 | 0.9 | 0.9 | 0.00 | 0.00 | 0.00 | 65 | 1006.9 |
| 20260508072130 | 92 | 336 | 0.9 | 1.7 | 0.00 | 0.00 | 0.00 | 63 | 1007.0 |
| 20260508071627 | 93 | 33 | 0.0 | 0.9 | 0.00 | 0.00 | 0.00 | 62 | 1006.9 |
| 20260508071125 | 92 | 260 | 0.0 | 1.7 | 0.00 | 0.00 | 0.00 | 64 | 1006.9 |
| 20260508070623 | 92 | 155 | 0.0 | 0.9 | 0.00 | 0.00 | 0.00 | 64 | 1007.0 |
| 20260508070121 | 92 | 109 | 0.0 | 0.9 | 0.00 | 0.00 | 0.00 | 63 | 1007.0 |
| 20260508065618 | 93 | 48 | 0.9 | 1.7 | 0.00 | 0.00 | 0.00 | 62 | 1006.9 |
| 20260508065115 | 94 | 109 | 0.0 | 0.9 | 0.00 | 0.00 | 0.00 | 61 | 1006.9 |
| 20260508064613 | 94 | 50 | 1.7 | 2.6 | 0.00 | 0.00 | 0.00 | 60 | 1006.9 |
| 20260508064111 | 95 | 175 | 1.7 | 3.5 | 0.00 | 0.00 | 0.00 | 59 | 1007.0 |
| 20260508063608 | 96 | 201 | 0.9 | 1.7 | 0.00 | 0.00 | 0.00 | 58 | 1006.8 |
| 20260508063106 | 94 | 111 | 0.9 | 5.2 | 0.00 | 0.00 | 0.00 | 59 | 1006.7 |
| 20260508062603 | 96 | 150 | 0.9 | 2.6 | 0.00 | 0.00 | 0.00 | 56 | 1006.9 |
| 20260508062100 | 97 | 121 | 1.7 | 5.2 | 0.00 | 0.00 | 0.00 | 55 | 1006.9 |
| 20260508061558 | 97 | 243 | 0.0 | 0.9 | 0.00 | 0.00 | 0.00 | 54 | 1007.0 |
| 20260508061055 | 97 | 204 | 0.9 | 2.6 | 0.00 | 0.00 | 0.00 | 56 | 1006.9 |
| 20260508060551 | 98 | 25 | 0.9 | 3.5 | 0.00 | 0.00 | 0.00 | 54 | 1007.1 |
| 20260508060048 | 97 | 136 | 0.9 | 2.6 | 0.00 | 0.00 | 0.00 | 55 | 1007.1 |
| 20260508055544 | 98 | 247 | 0.9 | 0.9 | 0.00 | 0.00 | 0.00 | 57 | 1007.1 |
| 20260508055041 | 97 | 163 | 0.0 | 1.7 | 0.00 | 0.00 | 0.00 | 55 | 1007.2 |
| 20260508054537 | 96 | 183 | 0.9 | 1.7 | 0.00 | 0.00 | 0.00 | 57 | 1007.3 |
| 20260508054035 | 97 | 34 | 0.9 | 3.5 | 0.00 | 0.00 | 0.00 | 55 | 1007.2 |
| 20260508053531 | 98 | 26 | 0.9 | 1.7 | 0.00 | 0.00 | 0.00 | 54 | 1007.2 |
| 20260508053030 | 98 | 38 | 0.9 | 1.7 | 0.00 | 0.00 | 0.00 | 54 | 1007.3 |
| 20260508052527 | 97 | 237 | 0.0 | 1.7 | 0.00 | 0.00 | 0.00 | 56 | 1007.3 |
| 20260508052023 | 97 | 145 | 0.9 | 0.9 | 0.00 | 0.00 | 0.00 | 56 | 1007.5 |
| 20260508051520 | 96 | 176 | 0.0 | 3.5 | 0.00 | 0.00 | 0.00 | 58 | 1007.4 |
| 20260508051015 | 95 | 49 | 0.9 | 2.6 | 0.00 | 0.00 | 0.00 | 59 | 1007.4 |
| 20260508050512 | 95 | 50 | 0.9 | 2.6 | 0.00 | 0.00 | 0.00 | 58 | 1007.7 |
| 20260508050009 | 96 | 61 | 1.7 | 3.5 | 0.00 | 0.00 | 0.00 | 58 | 1007.7 |
| 20260508045505 | 97 | 63 | 1.7 | 2.6 | 0.00 | 0.00 | 0.00 | 56 | 1007.6 |
| 20260508045003 | 95 | 302 | 0.9 | 2.6 | 0.00 | 0.00 | 0.00 | 59 | 1007.6 |
| 20260508044500 | 96 | 14 | 1.7 | 2.6 | 0.00 | 0.00 | 0.00 | 59 | 1007.8 |
| 20260508043955 | 96 | 216 | 1.7 | 2.6 | 0.00 | 0.00 | 0.00 | 60 | 1008.0 |
| 20260508043453 | 95 | 267 | 0.0 | 0.9 | 0.00 | 0.00 | 0.00 | 63 | 1007.8 |
| 20260508042948 | 95 | 167 | 0.9 | 1.7 | 0.00 | 0.00 | 0.00 | 61 | 1008.1 |
| 20260508042447 | 96 | 246 | 2.6 | 3.5 | 0.00 | 0.00 | 0.00 | 61 | 1008.0 |
| 20260508041943 | 97 | 265 | 0.9 | 0.9 | 0.00 | 0.00 | 0.00 | 58 | 1008.2 |
| 20260508041440 | 97 | 294 | 0.9 | 1.7 | 0.00 | 0.00 | 0.00 | 58 | 1008.0 |
| 20260508040937 | 97 | 313 | 0.0 | 2.6 | 0.00 | 0.00 | 0.00 | 58 | 1008.1 |
| 20260508040434 | 97 | 19 | 0.9 | 2.6 | 0.00 | 0.00 | 0.00 | 57 | 1008.1 |
| 20260508035932 | 96 | 343 | 1.7 | 2.6 | 0.00 | 0.00 | 0.00 | 59 | 1008.1 |
| 20260508035428 | 94 | 227 | 0.9 | 2.6 | 0.00 | 0.00 | 0.00 | 63 | 1008.2 |
| 20260508034925 | 94 | 151 | 0.9 | 0.9 | 0.00 | 0.00 | 0.00 | 62 | 1008.3 |
| 20260508034423 | 94 | 164 | 0.9 | 5.2 | 0.00 | 0.00 | 0.00 | 61 | 1008.3 |
| 20260508033919 | 94 | 141 | 1.7 | 3.5 | 0.00 | 0.00 | 0.00 | 63 | 1008.3 |
| 20260508033417 | 95 | 153 | 1.7 | 2.6 | 0.00 | 0.00 | 0.00 | 60 | 1008.4 |
| 20260508032914 | 96 | 193 | 0.0 | 1.7 | 0.00 | 0.00 | 0.00 | 61 | 1008.6 |
| 20260508032412 | 96 | 221 | 0.0 | 2.6 | 0.00 | 0.00 | 0.00 | 61 | 1008.7 |
| 20260508031908 | 96 | 163 | 0.9 | 1.7 | 0.00 | 0.00 | 0.00 | 60 | 1008.7 |
| 20260508031406 | 95 | 187 | 0.0 | 0.9 | 0.00 | 0.00 | 0.00 | 60 | 1008.7 |
| 20260508030901 | 94 | 50 | 0.9 | 2.6 | 0.00 | 0.00 | 0.00 | 62 | 1008.8 |
| 20260508030359 | 93 | 225 | 0.0 | 1.7 | 0.00 | 0.00 | 0.00 | 64 | 1008.8 |
| 20260508025856 | 93 | 270 | 0.0 | 0.9 | 0.00 | 0.00 | 0.00 | 65 | 1008.7 |
| 20260508025352 | 94 | 173 | 1.7 | 2.6 | 0.00 | 0.00 | 0.00 | 63 | 1008.8 |
| 20260508024849 | 94 | 334 | 0.0 | 0.9 | 0.00 | 0.00 | 0.00 | 63 | 1008.9 |
| 20260508024346 | 94 | 116 | 0.9 | 2.6 | 0.00 | 0.00 | 0.00 | 63 | 1009.1 |
| 20260508023843 | 95 | 337 | 1.7 | 1.7 | 0.00 | 0.00 | 0.00 | 62 | 1009.0 |
| 20260508023340 | 94 | 313 | 0.9 | 2.6 | 0.00 | 0.00 | 0.00 | 63 | 1009.1 |
| 20260508022837 | 94 | 227 | 1.7 | 1.7 | 0.00 | 0.00 | 0.00 | 62 | 1009.1 |
| 20260508022332 | 93 | 144 | 0.0 | 1.7 | 0.00 | 0.00 | 0.00 | 64 | 1009.1 |
| 20260508021830 | 91 | 149 | 0.0 | 1.7 | 0.00 | 0.00 | 0.00 | 68 | 1009.0 |
| 20260508021325 | 91 | 62 | 0.9 | 1.7 | 0.00 | 0.00 | 0.00 | 67 | 1009.0 |
| 20260508020821 | 90 | 253 | 0.0 | 3.5 | 0.00 | 0.00 | 0.00 | 71 | 1009.2 |
| 20260508020319 | 91 | 53 | 0.9 | 1.7 | 0.00 | 0.00 | 0.00 | 70 | 1009.6 |
| 20260508015816 | 91 | 293 | 0.0 | 0.9 | 0.00 | 0.00 | 0.00 | 70 | 1009.5 |
| 20260508015314 | 90 | 211 | 0.0 | 1.7 | 0.00 | 0.00 | 0.00 | 71 | 1009.3 |
| 20260508014810 | 90 | 220 | 0.9 | 2.6 | 0.00 | 0.00 | 0.00 | 71 | 1009.1 |
| 20260508014307 | 90 | 97 | 0.0 | 1.7 | 0.00 | 0.00 | 0.00 | 70 | 1009.4 |
| 20260508013803 | 91 | 210 | 0.0 | 2.6 | 0.00 | 0.00 | 0.00 | 70 | 1009.3 |
| 20260508013259 | 90 | 185 | 0.0 | 0.9 | 0.00 | 0.00 | 0.00 | 69 | 1009.2 |
| 20260508012757 | 90 | 168 | 0.0 | 0.9 | 0.00 | 0.00 | 0.00 | 69 | 1009.6 |
| 20260508012254 | 90 | 317 | 0.0 | 0.0 | 0.00 | 0.00 | 0.00 | 69 | 1009.5 |
| 20260508011752 | 90 | 48 | 0.0 | 1.7 | 0.00 | 0.00 | 0.00 | 69 | 1009.6 |
| 20260508011249 | 91 | 164 | 1.7 | 3.5 | 0.00 | 0.00 | 0.00 | 68 | 1009.3 |
| 20260508010746 | 92 | 114 | 0.0 | 1.7 | 0.00 | 0.00 | 0.00 | 68 | 1009.2 |
| 20260508010244 | 90 | 71 | 0.0 | 0.9 | 0.00 | 0.00 | 0.00 | 71 | 1009.1 |
| 20260508005741 | 90 | 226 | 0.0 | 0.0 | 0.00 | 0.00 | 0.00 | 72 | 1009.2 |
| 20260508005238 | 90 | 52 | 0.0 | 0.9 | 0.00 | 0.00 | 0.00 | 70 | 1009.3 |
| 20260508004733 | 89 | 135 | 0.0 | 0.9 | 0.00 | 0.00 | 0.00 | 73 | 1009.3 |
| 20260508004229 | 89 | 246 | 0.0 | 0.9 | 0.00 | 0.00 | 0.00 | 71 | 1009.5 |
| 20260508003726 | 89 | 154 | 0.0 | 0.9 | 0.00 | 0.00 | 0.00 | 72 | 1009.5 |
| 20260508003224 | 88 | 159 | 0.0 | 1.7 | 0.00 | 0.00 | 0.00 | 75 | 1009.6 |
| 20260508002720 | 88 | 156 | 0.0 | 0.9 | 0.00 | 0.00 | 0.00 | 75 | 1009.4 |
| 20260508002218 | 88 | 43 | 0.0 | 3.5 | 0.00 | 0.00 | 0.00 | 74 | 1009.3 |
| 20260508001713 | 88 | 359 | 0.0 | 0.0 | 0.00 | 0.00 | 0.00 | 75 | 1009.3 |
| 20260508001209 | 87 | 350 | 0.0 | 0.0 | 0.00 | 0.00 | 0.00 | 75 | 1009.2 |
| 20260508000705 | 87 | 187 | 0.0 | 0.9 | 0.00 | 0.00 | 0.00 | 79 | 1009.0 |
| 20260508000204 | 86 | 271 | 0.0 | 0.0 | 0.00 | 0.00 | 0.00 | 78 | 1009.0 |
| 20260507235659 | 87 | 164 | 0.0 | 0.0 | 0.00 | 0.00 | 0.00 | 76 | 1009.0 |
| 20260507235156 | 88 | 162 | 0.9 | 1.7 | 0.00 | 0.00 | 0.00 | 76 | 1008.8 |
| 20260507234653 | 87 | 304 | 0.0 | 0.0 | 0.00 | 0.00 | 0.00 | 77 | 1008.8 |
| 20260507234149 | 86 | 53 | 0.0 | 0.0 | 0.00 | 0.00 | 0.00 | 79 | 1008.9 |
| 20260507233646 | 85 | 162 | 0.0 | 0.0 | 0.00 | 0.00 | 0.00 | 81 | 1008.9 |
| 20260507233145 | 84 | 162 | 0.9 | 0.9 | 0.00 | 0.00 | 0.00 | 83 | 1008.7 |
| 20260507232641 | 83 | 256 | 0.0 | 0.9 | 0.00 | 0.00 | 0.00 | 86 | 1008.8 |
| 20260507232139 | 83 | 212 | 0.0 | 0.0 | 0.00 | 0.00 | 0.00 | 88 | 1008.7 |
| 20260507231635 | 82 | 210 | 0.0 | 0.0 | 0.00 | 0.00 | 0.00 | 88 | 1008.7 |
| 20260507231132 | 82 | 210 | 0.0 | 0.0 | 0.00 | 0.00 | 0.00 | 88 | 1008.7 |
| 20260507230628 | 82 | 210 | 0.0 | 0.0 | 0.00 | 0.00 | 0.00 | 89 | 1008.6 |
| 20260507230126 | 82 | 210 | 0.0 | 0.0 | 0.00 | 0.00 | 0.00 | 89 | 1008.5 |
| 20260507225625 | 82 | 210 | 0.0 | 0.0 | 0.00 | 0.00 | 0.00 | 90 | 1008.5 |
| 20260507225122 | 82 | 210 | 0.0 | 0.0 | 0.00 | 0.00 | 0.00 | 90 | 1008.6 |
| 20260507224618 | 81 | 206 | 0.0 | 0.0 | 0.00 | 0.00 | 0.00 | 90 | 1008.6 |
| 20260507224115 | 81 | 206 | 0.0 | 0.0 | 0.00 | 0.00 | 0.00 | 91 | 1008.3 |
| 20260507223611 | 81 | 206 | 0.0 | 0.0 | 0.00 | 0.00 | 0.00 | 91 | 1008.4 |
| 20260507223108 | 81 | 206 | 0.0 | 0.0 | 0.00 | 0.00 | 0.00 | 91 | 1008.2 |
| 20260507222605 | 81 | 206 | 0.0 | 0.0 | 0.00 | 0.00 | 0.00 | 91 | 1008.0 |
| 20260507222101 | 81 | 206 | 0.0 | 0.0 | 0.00 | 0.00 | 0.00 | 91 | 1007.9 |
| 20260507221557 | 81 | 205 | 0.0 | 0.0 | 0.00 | 0.00 | 0.00 | 92 | 1008.0 |
| 20260507221055 | 80 | 205 | 0.0 | 0.0 | 0.00 | 0.00 | 0.00 | 92 | 1008.1 |
| 20260507220552 | 80 | 205 | 0.0 | 0.0 | 0.00 | 0.00 | 0.00 | 92 | 1007.7 |
| 20260507220049 | 80 | 205 | 0.0 | 0.0 | 0.00 | 0.00 | 0.00 | 92 | 1007.8 |
| 20260507215545 | 81 | 201 | 0.0 | 0.0 | 0.00 | 0.00 | 0.00 | 92 | 1007.6 |
| 20260507215044 | 81 | 202 | 0.0 | 0.0 | 0.00 | 0.00 | 0.00 | 92 | 1007.7 |
| 20260507214540 | 81 | 202 | 0.0 | 0.0 | 0.00 | 0.00 | 0.00 | 92 | 1007.6 |
| 20260507214036 | 80 | 202 | 0.0 | 0.0 | 0.00 | 0.00 | 0.00 | 92 | 1007.5 |
| 20260507213533 | 80 | 202 | 0.0 | 0.0 | 0.00 | 0.00 | 0.00 | 92 | 1007.5 |
| 20260507213030 | 80 | 202 | 0.0 | 0.0 | 0.00 | 0.00 | 0.00 | 92 | 1007.4 |
| 20260507212525 | 80 | 202 | 0.0 | 0.0 | 0.00 | 0.00 | 0.00 | 93 | 1007.5 |
| 20260507212022 | 80 | 202 | 0.0 | 0.0 | 0.00 | 0.00 | 0.00 | 93 | 1007.4 |
| 20260507211519 | 81 | 202 | 0.0 | 0.0 | 0.00 | 0.00 | 0.00 | 93 | 1007.7 |
| 20260507211015 | 81 | 202 | 0.0 | 0.0 | 0.00 | 0.00 | 0.00 | 93 | 1007.6 |
| 20260507210513 | 81 | 202 | 0.0 | 0.0 | 0.00 | 0.00 | 0.00 | 93 | 1007.4 |
| 20260507210009 | 81 | 202 | 0.0 | 0.0 | 0.00 | 0.00 | 0.00 | 92 | 1007.5 |
| 20260507205506 | 81 | 202 | 0.0 | 0.0 | 0.00 | 0.00 | 0.00 | 93 | 1007.5 |
| 20260507205002 | 81 | 202 | 0.0 | 0.0 | 0.00 | 0.00 | 0.00 | 93 | 1007.4 |
| 20260507204459 | 81 | 201 | 0.0 | 0.0 | 0.00 | 0.00 | 0.00 | 93 | 1007.4 |
| 20260507203957 | 81 | 201 | 0.0 | 0.0 | 0.00 | 0.00 | 0.00 | 93 | 1007.3 |
| 20260507203454 | 81 | 201 | 0.0 | 0.0 | 0.00 | 0.00 | 0.00 | 93 | 1007.6 |
| 20260507202950 | 80 | 201 | 0.0 | 0.0 | 0.00 | 0.00 | 0.00 | 93 | 1007.4 |
| 20260507202447 | 80 | 201 | 0.0 | 0.0 | 0.00 | 0.00 | 0.00 | 93 | 1007.5 |
| 20260507201943 | 80 | 201 | 0.0 | 0.0 | 0.00 | 0.00 | 0.00 | 93 | 1007.4 |
| 20260507201438 | 81 | 201 | 0.0 | 0.0 | 0.00 | 0.00 | 0.00 | 92 | 1007.3 |
| 20260507200935 | 81 | 201 | 0.0 | 0.0 | 0.00 | 0.00 | 0.00 | 92 | 1007.3 |
| 20260507200431 | 81 | 201 | 0.0 | 0.0 | 0.00 | 0.00 | 0.00 | 92 | 1007.3 |
| 20260507195927 | 81 | 201 | 0.0 | 0.0 | 0.00 | 0.00 | 0.00 | 92 | 1007.1 |
| 20260507195425 | 81 | 201 | 0.0 | 0.0 | 0.00 | 0.00 | 0.00 | 92 | 1007.3 |
| 20260507194922 | 81 | 201 | 0.0 | 0.0 | 0.00 | 0.00 | 0.00 | 92 | 1007.2 |
| 20260507194418 | 81 | 201 | 0.0 | 0.0 | 0.00 | 0.00 | 0.00 | 91 | 1007.3 |
| 20260507193914 | 81 | 201 | 0.0 | 0.0 | 0.00 | 0.00 | 0.00 | 91 | 1007.3 |
| 20260507193412 | 81 | 201 | 0.0 | 0.0 | 0.00 | 0.00 | 0.00 | 91 | 1007.2 |
| 20260507192908 | 81 | 201 | 0.0 | 0.0 | 0.00 | 0.00 | 0.00 | 90 | 1007.2 |
| 20260507192404 | 81 | 201 | 0.0 | 0.0 | 0.00 | 0.00 | 0.00 | 90 | 1007.4 |
| 20260507191901 | 81 | 201 | 0.0 | 0.0 | 0.00 | 0.00 | 0.00 | 90 | 1007.3 |
| 20260507191357 | 81 | 201 | 0.0 | 0.0 | 0.00 | 0.00 | 0.00 | 90 | 1007.1 |
| 20260507190854 | 81 | 201 | 0.0 | 0.0 | 0.00 | 0.00 | 0.00 | 89 | 1007.2 |
| 20260507190352 | 81 | 201 | 0.0 | 0.0 | 0.00 | 0.00 | 0.00 | 89 | 1007.2 |
| 20260507185851 | 81 | 201 | 0.0 | 0.0 | 0.00 | 0.00 | 0.00 | 89 | 1007.1 |
| 20260507185348 | 81 | 201 | 0.0 | 0.0 | 0.00 | 0.00 | 0.00 | 89 | 1007.1 |
| 20260507184844 | 81 | 201 | 0.0 | 0.0 | 0.00 | 0.00 | 0.00 | 89 | 1007.2 |
| 20260507184342 | 81 | 201 | 0.0 | 0.0 | 0.00 | 0.00 | 0.00 | 89 | 1007.2 |
| 20260507183839 | 81 | 201 | 0.0 | 0.0 | 0.00 | 0.00 | 0.00 | 90 | 1007.4 |
| 20260507183336 | 81 | 201 | 0.0 | 0.0 | 0.00 | 0.00 | 0.00 | 90 | 1007.4 |
| 20260507182834 | 81 | 201 | 0.0 | 0.0 | 0.00 | 0.00 | 0.00 | 90 | 1007.2 |
| 20260507182329 | 81 | 201 | 0.0 | 0.0 | 0.00 | 0.00 | 0.00 | 90 | 1007.4 |
| 20260507181826 | 81 | 201 | 0.0 | 0.0 | 0.00 | 0.00 | 0.00 | 90 | 1007.5 |
| 20260507181322 | 81 | 201 | 0.0 | 0.0 | 0.00 | 0.00 | 0.00 | 90 | 1007.5 |
| 20260507180819 | 81 | 201 | 0.0 | 0.0 | 0.00 | 0.00 | 0.00 | 90 | 1007.5 |
| 20260507180316 | 81 | 201 | 0.0 | 0.0 | 0.00 | 0.00 | 0.00 | 90 | 1007.5 |
| 20260507175811 | 81 | 201 | 0.0 | 0.0 | 0.00 | 0.00 | 0.00 | 90 | 1007.4 |
| 20260507175308 | 81 | 201 | 0.0 | 0.0 | 0.00 | 0.00 | 0.00 | 90 | 1007.5 |
| 20260507174805 | 81 | 201 | 0.0 | 0.0 | 0.00 | 0.00 | 0.00 | 90 | 1007.4 |
| 20260507174303 | 81 | 201 | 0.0 | 0.0 | 0.00 | 0.00 | 0.00 | 90 | 1007.7 |
| 20260507173801 | 81 | 201 | 0.0 | 0.0 | 0.00 | 0.00 | 0.00 | 90 | 1007.7 |
| 20260507173258 | 81 | 201 | 0.0 | 0.0 | 0.00 | 0.00 | 0.00 | 90 | 1007.9 |
| 20260507172754 | 81 | 201 | 0.0 | 0.0 | 0.00 | 0.00 | 0.00 | 89 | 1007.8 |
| 20260507172251 | 80 | 201 | 0.0 | 0.0 | 0.00 | 0.00 | 0.00 | 89 | 1008.0 |
| 20260507171746 | 80 | 201 | 0.0 | 0.0 | 0.00 | 0.00 | 0.00 | 90 | 1008.0 |
| 20260507171243 | 80 | 201 | 0.0 | 0.0 | 0.00 | 0.00 | 0.00 | 90 | 1008.1 |
| 20260507170740 | 80 | 201 | 0.0 | 0.0 | 0.00 | 0.00 | 0.00 | 90 | 1008.0 |
| 20260507170237 | 80 | 201 | 0.0 | 0.0 | 0.00 | 0.00 | 0.00 | 90 | 1008.0 |
| 20260507165732 | 80 | 201 | 0.0 | 0.0 | 0.00 | 0.00 | 0.00 | 90 | 1008.0 |
| 20260507165229 | 80 | 201 | 0.0 | 0.0 | 0.00 | 0.00 | 0.00 | 90 | 1008.1 |
| 20260507164725 | 80 | 201 | 0.0 | 0.0 | 0.00 | 0.00 | 0.00 | 90 | 1008.2 |
| 20260507164223 | 80 | 201 | 0.0 | 0.0 | 0.00 | 0.00 | 0.00 | 90 | 1008.0 |
| 20260507163719 | 80 | 201 | 0.0 | 0.0 | 0.00 | 0.00 | 0.00 | 90 | 1008.2 |
| 20260507163218 | 80 | 201 | 0.0 | 0.0 | 0.00 | 0.00 | 0.00 | 89 | 1008.2 |
| 20260507162713 | 80 | 201 | 0.0 | 0.0 | 0.00 | 0.00 | 0.00 | 89 | 1008.3 |
| 20260507162209 | 80 | 201 | 0.0 | 0.0 | 0.00 | 0.00 | 0.00 | 89 | 1008.3 |
| 20260507161706 | 80 | 192 | 0.0 | 0.0 | 0.00 | 0.00 | 0.00 | 89 | 1008.0 |
| 20260507161203 | 80 | 192 | 0.0 | 0.0 | 0.00 | 0.00 | 0.00 | 89 | 1008.1 |
| 20260507160658 | 80 | 192 | 0.0 | 0.0 | 0.00 | 0.00 | 0.00 | 89 | 1008.1 |
| 20260507160155 | 80 | 192 | 0.0 | 0.0 | 0.00 | 0.00 | 0.00 | 89 | 1007.9 |
| 20260507155651 | 80 | 192 | 0.0 | 0.0 | 0.00 | 0.00 | 0.00 | 89 | 1008.2 |
| 20260507155148 | 80 | 192 | 0.0 | 0.0 | 0.00 | 0.00 | 0.00 | 89 | 1008.3 |
| 20260507154644 | 80 | 192 | 0.0 | 0.0 | 0.00 | 0.00 | 0.00 | 89 | 1008.5 |
| 20260507154142 | 80 | 192 | 0.0 | 0.0 | 0.00 | 0.00 | 0.00 | 88 | 1008.5 |
| 20260507153638 | 80 | 192 | 0.0 | 0.0 | 0.00 | 0.00 | 0.00 | 89 | 1008.4 |
| 20260507153135 | 80 | 192 | 0.0 | 0.0 | 0.00 | 0.00 | 0.00 | 88 | 1008.3 |
| 20260507152631 | 80 | 192 | 0.0 | 0.0 | 0.00 | 0.00 | 0.00 | 89 | 1008.4 |
| 20260507152127 | 80 | 192 | 0.0 | 0.0 | 0.00 | 0.00 | 0.00 | 88 | 1008.2 |
| 20260507151623 | 80 | 192 | 0.0 | 0.0 | 0.00 | 0.00 | 0.00 | 88 | 1008.0 |
| 20260507151121 | 80 | 192 | 0.0 | 0.0 | 0.00 | 0.00 | 0.00 | 88 | 1008.1 |
| 20260507150618 | 81 | 192 | 0.0 | 0.0 | 0.00 | 0.00 | 0.00 | 88 | 1008.5 |
| 20260507150115 | 81 | 192 | 0.0 | 0.0 | 0.00 | 0.00 | 0.00 | 88 | 1008.3 |
| 20260507145615 | 81 | 192 | 0.0 | 0.0 | 0.00 | 0.00 | 0.00 | 88 | 1008.5 |
| 20260507145113 | 81 | 192 | 0.0 | 0.0 | 0.00 | 0.00 | 0.00 | 87 | 1008.5 |
| 20260507144613 | 81 | 192 | 0.0 | 0.0 | 0.00 | 0.00 | 0.00 | 87 | 1008.5 |
| 20260507144112 | 81 | 192 | 0.0 | 0.0 | 0.00 | 0.00 | 0.00 | 87 | 1008.5 |
| 20260507143608 | 81 | 192 | 0.0 | 0.0 | 0.00 | 0.00 | 0.00 | 87 | 1008.6 |
| 20260507143106 | 81 | 191 | 0.0 | 0.0 | 0.00 | 0.00 | 0.00 | 87 | 1008.5 |
| 20260507142601 | 81 | 191 | 0.0 | 0.0 | 0.00 | 0.00 | 0.00 | 87 | 1008.6 |
| 20260507142058 | 81 | 191 | 0.0 | 0.0 | 0.00 | 0.00 | 0.00 | 87 | 1008.4 |
| 20260507141554 | 81 | 191 | 0.0 | 0.0 | 0.00 | 0.00 | 0.00 | 88 | 1008.6 |
| 20260507141051 | 81 | 192 | 0.0 | 0.0 | 0.00 | 0.00 | 0.00 | 87 | 1008.4 |
| 20260507140548 | 81 | 192 | 0.0 | 0.0 | 0.00 | 0.00 | 0.00 | 88 | 1008.7 |
| 20260507140045 | 81 | 192 | 0.0 | 0.0 | 0.00 | 0.00 | 0.00 | 87 | 1008.5 |
| 20260507135542 | 81 | 192 | 0.0 | 0.0 | 0.00 | 0.00 | 0.00 | 87 | 1008.5 |
| 20260507135039 | 81 | 192 | 0.0 | 0.0 | 0.00 | 0.00 | 0.00 | 87 | 1008.6 |
| 20260507134536 | 81 | 192 | 0.0 | 0.0 | 0.00 | 0.00 | 0.00 | 86 | 1008.4 |
| 20260507134031 | 81 | 192 | 0.0 | 0.0 | 0.00 | 0.00 | 0.00 | 86 | 1008.1 |
| 20260507133528 | 81 | 192 | 0.0 | 0.0 | 0.00 | 0.00 | 0.00 | 86 | 1008.5 |
| 20260507133026 | 81 | 192 | 0.0 | 0.0 | 0.00 | 0.00 | 0.00 | 86 | 1008.2 |
| 20260507132522 | 81 | 191 | 0.0 | 0.0 | 0.00 | 0.00 | 0.00 | 85 | 1008.3 |
| 20260507132019 | 81 | 191 | 0.0 | 0.0 | 0.00 | 0.00 | 0.00 | 85 | 1008.1 |
| 20260507131516 | 81 | 190 | 0.0 | 0.0 | 0.00 | 0.00 | 0.00 | 85 | 1008.2 |
| 20260507131013 | 81 | 190 | 0.0 | 0.0 | 0.00 | 0.00 | 0.00 | 85 | 1008.4 |
| 20260507130510 | 81 | 190 | 0.0 | 0.0 | 0.00 | 0.00 | 0.00 | 85 | 1008.2 |
| 20260507130008 | 81 | 190 | 0.0 | 0.0 | 0.00 | 0.00 | 0.00 | 85 | 1008.0 |